Tracking 30166 objects as of 22-Jan-2025
HD Live streaming from Space Station
objects crossing your sky now

STARLINK-2526

Track STARLINK-2526 now!
10-day predictions
STARLINK-2526 is classified as:


NORAD ID: 48378
Int'l Code: 2021-038AB
Perigee: 553.2 km
Apogee: 555.5 km
Inclination: 53.1 °
Period: 95.6 minutes
Semi major axis: 6925 km
RCS: Unknown
Launch date: May 4, 2021
Source: United States (US)
Launch site: AIR FORCE EASTERN TEST RANGE (AFETR)
Your satellite tracking list
Your tracking list is empty




NASA's NSSDC Master Catalog

Two Line Element Set (TLE):
1 48378U 21038AB  25022.05326145  .00001462  00000-0  11706-3 0  9992
2 48378  53.0558  39.5248 0001700  90.1656 269.9528 15.06394775205122
Source of the keplerian elements: AFSPC